Regional Weather Roundup
Issued by NWS Little Rock, AR

Home | Current Version | Previous Version | Text Only | Print | Product List | Glossary Off
Versions: 1 2 3 4 5 6 7 8 9 10 11 12 13 14 15 16 17 18 19 20 21 22 23 24 25 26 27 28 29 30 31 32 33 34 35 36 37 38 39 40 41 42 43 44 45 46 47 48 49 50

000
ASUS44 KLZK 020105
RWRLZK

WEATHER ROUNDUP FOR ARKANSAS
NATIONAL WEATHER SERVICE LITTLE ROCK AR
800 PM CDT MON SEP 01 2014

NOTE: "FAIR" INDICATES FEW OR NO CLOUDS BELOW 12,000 FEET WITH NO
SIGNIFICANT WEATHER AND/OR OBSTRUCTIONS TO VISIBILITY.

ARZ001-003-010-029-020200-
NORTHWEST ARKANSAS

CITY           SKY/WX    TMP DP  RH WIND       PRES   REMARKS
FAYETTEVILLE   CLEAR     81  69  67 S8        29.88F
FORT SMITH     CLEAR     87  70  56 S10       29.84F HX  92
HARRISON       CLEAR     78  70  76 S9        29.90F
BENTONVILLE    PTCLDY    82  70  65 S7        29.90R HX  86
ROGERS         MOCLDY    82  69  64 SE9       29.90R HX  85
HIGHFILL       CLEAR     83  69  62 S12       29.88R HX  86
SPRINGDALE     PTCLDY    82  70  65 S12       29.91S HX  86
$$

ARZ004-005-016-020200-
NORTH CENTRAL ARKANSAS

CITY           SKY/WX    TMP DP  RH WIND       PRES   REMARKS
BATESVILLE     CLEAR     84  70  61 S6        29.90F HX  88
FLIPPIN        CLEAR     82  66  57 SE3       29.89S HX  85
MTN HOME       CLEAR     81  70  69 S7        29.88F
$$

ARZ040-041-020200-
WEST CENTRAL ARKANSAS

CITY           SKY/WX    TMP DP  RH WIND       PRES   REMARKS
MENA           CLEAR     86  72  62 CALM      29.92S HX  92
MOUNT IDA      CLEAR     83  72  69 VRB5      29.90F HX  88
$$

ARZ009-017-025-026-028-020200-
NORTHEAST ARKANSAS

CITY           SKY/WX    TMP DP  RH WIND       PRES   REMARKS
CORNING          N/A     81  72  74 S10       29.91S
JONESBORO      CLEAR     83  72  69 S9        29.92S HX  88
NEWPORT        CLEAR     81  74  79 SE9       29.92F HX  86
WALNUT RIDGE   CLEAR     81  57  44 S9        29.90F
BLYTHEVILLE    CLEAR     82  75  79 S8        29.94S HX  89
$$

ARZ022-023-033-042-044-020200-
CENTRAL ARKANSAS

CITY           SKY/WX    TMP DP  RH WIND       PRES   REMARKS
LITTLE ROCK    PTCLDY    83  72  69 S8        29.92S HX  88
N LITTLE ROCK  PTCLDY    84  75  74 S9        29.92S HX  92
JACKSONVILLE   CLEAR     84  73  70 S5        29.92S HX  91
SEARCY         CLEAR     82  74  77 MISG      29.93S HX  88
HOT SPRINGS    CLEAR     84  73  69 S7        29.93R HX  90
RUSSELLVILLE   CLEAR     82  71  69 VRB3      29.88F HX  86
CLINTON        FAIR      82  73  74 S3        29.89F HX  88
$$

ARZ036-020200-
EAST ARKANSAS

CITY           SKY/WX    TMP DP  RH WIND       PRES   REMARKS
WEST MEMPHIS   CLEAR     82  74  76 S7        29.94S HX  88
$$

ARZ050-053-066-070-073-020200-
SOUTHWEST ARKANSAS

CITY           SKY/WX    TMP DP  RH WIND       PRES   REMARKS
ARKADELPHIA    FAIR      84  76  77 S6        29.92S HX  92
CAMDEN         CLEAR     82  73  74 SE6       29.93R HX  88
TEXARKANA      CLEAR     87  72  60 SE10      29.91R HX  93
EL DORADO      PTCLDY    82  77  84 SE6       29.94S HX  90
DE QUEEN       CLEAR     84  74  71 SE3       29.87S HX  91
$$

ARZ056-057-069-020200-
SOUTHEAST ARKANSAS

CITY           SKY/WX    TMP DP  RH WIND       PRES   REMARKS
PINE BLUFF     CLEAR     80  74  81 SE8       29.94S HX  85
STUTTGART      CLEAR     82  73  74 SE9       29.95R HX  88
MONTICELLO     CLEAR     82  77  84 CALM      29.95S HX  90

$$




USA.gov is the U.S. government's official web portal to all federal, state and local government web resources and services.